When you browse on this site, cookies collect data to enhance your experience and personalize the content and advertising you see.
Visit our Privacy Policy to learn more. By continuing to use the site, you agree to this use of cookies and data.
  • En España
  • Lista de países
  • Para 7 días
  • Temperatura del agua
  • El tiempo en el mapa
  • Informadores
  • user-avatar
    Iniciar sesión

    Tiempo cada hora Molina

    Hoy, 19 Febrero, Miércoles

    Tiempo Temperatura Precipitaciones Viento Presión Humedad
    00:00 +15°C° 0 mm 1 mps 735 mmHg 50%
    01:00 +13°C° 0 mm 1 mps 735 mmHg 57%
    02:00 +13°C° 0 mm 1 mps 735 mmHg 62%
    03:00 +12°C° 0 mm 1 mps 735 mmHg 67%
    04:00 +11°C° 0 mm 1 mps 735 mmHg 72%
    05:00 +13°C° 0 mm 1 mps 736 mmHg 68%
    06:00 +14°C° 0 mm 1 mps 736 mmHg 65%
    07:00 +16°C° 0 mm 1 mps 736 mmHg 61%
    08:00 +20°C° 0 mm 2 mps 736 mmHg 49%
    09:00 +24°C° 0 mm 3 mps 737 mmHg 38%
    10:00 +28°C° 0 mm 3 mps 737 mmHg 27%
    11:00 +30°C° 0 mm 3 mps 737 mmHg 21%
    12:00 +34°C° 0 mm 3 mps 737 mmHg 16%
    13:00 +37°C° 0 mm 3 mps 736 mmHg 11%
    14:00 +38°C° 0 mm 4 mps 736 mmHg 10%
    15:00 +38°C° 0 mm 4 mps 736 mmHg 9%
    16:00 +40°C° 0 mm 4 mps 736 mmHg 9%
    17:00 +35°C° 0 mm 3 mps 737 mmHg 12%
    18:00 +31°C° 0 mm 3 mps 737 mmHg 15%
    19:00 +27°C° 0 mm 3 mps 737 mmHg 18%
    20:00 +25°C° 0 mm 2 mps 737 mmHg 19%
    21:00 +23°C° 0 mm 2 mps 737 mmHg 21%
    22:00 +19°C° 0 mm 2 mps 737 mmHg 23%
    23:00 +18°C° 0 mm 2 mps 736 mmHg 27%

    Mañana, 20 Febrero, Jueves

    Tiempo Temperatura Precipitaciones Viento Presión Humedad
    00:00 +16°C° 0 mm 1 mps 736 mmHg 31%
    01:00 +15°C° 0 mm 1 mps 736 mmHg 35%
    02:00 +14°C° 0 mm 1 mps 736 mmHg 42%
    03:00 +13°C° 0 mm 1 mps 735 mmHg 48%
    04:00 +12°C° 0 mm 1 mps 735 mmHg 55%
    05:00 +14°C° 0 mm 1 mps 735 mmHg 50%
    06:00 +16°C° 0 mm 1 mps 736 mmHg 45%
    07:00 +19°C° 0 mm 1 mps 736 mmHg 41%
    08:00 +23°C° 0 mm 1 mps 736 mmHg 32%
    09:00 +28°C° 0 mm 1 mps 736 mmHg 24%
    10:00 +32°C° 0 mm 1 mps 736 mmHg 15%
    11:00 +36°C° 0 mm 2 mps 736 mmHg 12%
    12:00 +38°C° 0 mm 2 mps 736 mmHg 10%
    13:00 +42°C° 0 mm 3 mps 736 mmHg 8%
    14:00 +41°C° 0 mm 4 mps 736 mmHg 8%
    15:00 +41°C° 0 mm 4 mps 736 mmHg 9%
    16:00 +40°C° 0 mm 5 mps 736 mmHg 10%
    17:00 +34°C° 0 mm 4 mps 736 mmHg 18%
    18:00 +28°C° 0 mm 3 mps 737 mmHg 26%
    19:00 +24°C° 0 mm 1 mps 737 mmHg 35%
    20:00 +22°C° 0 mm 1 mps 737 mmHg 42%
    21:00 +19°C° 0 mm 1 mps 738 mmHg 50%
    22:00 +16°C° 0 mm 1 mps 738 mmHg 58%
    23:00 +16°C° 0 mm 1 mps 738 mmHg 60%

    Pasado mañana, 21 Febrero, Viernes

    Tiempo Temperatura Precipitaciones Viento Presión Humedad
    00:00 +15°C° 0 mm 1 mps 738 mmHg 63%
    01:00 +15°C° 0 mm 1 mps 738 mmHg 65%
    08:00 +24°C° 0 mm 1 mps 739 mmHg 36%
    09:00 +28°C° 0 mm 2 mps 739 mmHg 28%
    10:00 +31°C° 0 mm 2 mps 739 mmHg 20%
    11:00 +34°C° 0 mm 3 mps 739 mmHg 18%
    12:00 +36°C° 0 mm 3 mps 738 mmHg 16%
    13:00 +38°C° 0 mm 4 mps 738 mmHg 13%
    14:00 +37°C° 0 mm 4 mps 738 mmHg 15%
    15:00 +37°C° 0 mm 4 mps 738 mmHg 17%
    16:00 +36°C° 0 mm 5 mps 738 mmHg 19%
    17:00 +31°C° 0 mm 3 mps 738 mmHg 27%
    18:00 +26°C° 0 mm 2 mps 738 mmHg 35%
    19:00 +22°C° 0 mm 1 mps 738 mmHg 43%
    20:00 +20°C° 0 mm 1 mps 738 mmHg 51%
    21:00 +18°C° 0 mm 1 mps 739 mmHg 59%
    22:00 +15°C° 0 mm 0 mps 739 mmHg 67%
    23:00 +15°C° 0 mm 1 mps 739 mmHg 67%

    22 Febrero, Sábado

    Tiempo Temperatura Precipitaciones Viento Presión Humedad
    00:00 +15°C° 0 mm 1 mps 739 mmHg 67%
    01:00 +14°C° 0 mm 1 mps 739 mmHg 68%
    02:00 +13°C° 0 mm 0 mps 739 mmHg 69%
    03:00 +13°C° 0 mm 0 mps 739 mmHg 70%
    04:00 +12°C° 0 mm 0 mps 739 mmHg 70%
    05:00 +14°C° 0 mm 0 mps 739 mmHg 63%
    06:00 +18°C° 0 mm 1 mps 739 mmHg 56%
    07:00 +20°C° 0 mm 1 mps 740 mmHg 48%
    08:00 +24°C° 0 mm 1 mps 740 mmHg 40%
    09:00 +27°C° 0 mm 2 mps 740 mmHg 31%
    10:00 +31°C° 0 mm 2 mps 740 mmHg 22%
    11:00 +33°C° 0 mm 3 mps 739 mmHg 20%
    12:00 +35°C° 0 mm 3 mps 739 mmHg 18%
    13:00 +37°C° 0 mm 4 mps 739 mmHg 15%
    14:00 +36°C° 0 mm 4 mps 739 mmHg 17%
    15:00 +35°C° 0 mm 4 mps 738 mmHg 20%
    16:00 +34°C° 0 mm 5 mps 738 mmHg 22%
    17:00 +29°C° 0 mm 4 mps 738 mmHg 31%
    18:00 +25°C° 0 mm 2 mps 738 mmHg 40%
    19:00 +21°C° 0 mm 1 mps 738 mmHg 49%
    20:00 +20°C° 0 mm 1 mps 738 mmHg 57%
    21:00 +18°C° 0 mm 1 mps 738 mmHg 65%
    22:00 +14°C° 0 mm 0 mps 738 mmHg 72%
    23:00 +14°C° 0 mm 0 mps 738 mmHg 74%

    23 Febrero, Domingo

    Tiempo Temperatura Precipitaciones Viento Presión Humedad
    00:00 +13°C° 0 mm 0 mps 737 mmHg 75%
    01:00 +12°C° 0 mm 0 mps 737 mmHg 77%
    02:00 +12°C° 0 mm 0 mps 737 mmHg 77%
    03:00 +12°C° 0 mm 0 mps 737 mmHg 77%
    04:00 +11°C° 0 mm 0 mps 737 mmHg 78%
    05:00 +13°C° 0 mm 0 mps 737 mmHg 71%
    06:00 +15°C° 0 mm 0 mps 738 mmHg 64%
    07:00 +17°C° 0 mm 0 mps 738 mmHg 58%
    08:00 +22°C° 0 mm 1 mps 738 mmHg 47%
    09:00 +26°C° 0 mm 1 mps 738 mmHg 37%
    10:00 +30°C° 0 mm 1 mps 739 mmHg 27%
    11:00 +32°C° 0 mm 2 mps 739 mmHg 24%
    12:00 +34°C° 0 mm 3 mps 739 mmHg 21%
    13:00 +36°C° 0 mm 4 mps 739 mmHg 19%
    14:00 +34°C° 0 mm 4 mps 739 mmHg 22%
    15:00 +33°C° 0 mm 5 mps 738 mmHg 25%
    16:00 +30°C° 0 mm 5 mps 738 mmHg 29%
    17:00 +26°C° 0 mm 4 mps 738 mmHg 40%
    18:00 +21°C° 0 mm 3 mps 738 mmHg 51%
    19:00 +18°C° 0 mm 1 mps 738 mmHg 62%
    20:00 +16°C° 0 mm 1 mps 739 mmHg 70%
    21:00 +15°C° 0 mm 1 mps 739 mmHg 78%
    22:00 +13°C° 0 mm 1 mps 739 mmHg 86%
    23:00 +13°C° 0 mm 1 mps 739 mmHg 88%

    24 Febrero, Lunes

    Tiempo Temperatura Precipitaciones Viento Presión Humedad
    00:00 +11°C° 0 mm 0 mps 739 mmHg 90%
    01:00 +10°C° 0 mm 0 mps 739 mmHg 92%
    02:00 +10°C° 0 mm 0 mps 739 mmHg 92%
    03:00 +10°C° 0 mm 0 mps 739 mmHg 93%
    04:00 +10°C° 0 mm 0 mps 739 mmHg 94%
    05:00 +11°C° 0 mm 0 mps 739 mmHg 90%
    06:00 +12°C° 0 mm 0 mps 739 mmHg 86%
    07:00 +13°C° 0 mm 0 mps 739 mmHg 83%
    08:00 +18°C° 0 mm 1 mps 739 mmHg 71%
    09:00 +21°C° 0 mm 1 mps 739 mmHg 59%
    10:00 +24°C° 0 mm 2 mps 739 mmHg 47%
    11:00 +27°C° 0 mm 2 mps 738 mmHg 37%
    12:00 +29°C° 0 mm 2 mps 738 mmHg 27%
    13:00 +32°C° 0 mm 2 mps 738 mmHg 18%
    14:00 +33°C° 0 mm 3 mps 738 mmHg 18%
    15:00 +33°C° 0 mm 5 mps 738 mmHg 19%
    16:00 +33°C° 0 mm 6 mps 738 mmHg 19%
    17:00 +28°C° 0 mm 4 mps 738 mmHg 31%
    18:00 +22°C° 0 mm 3 mps 738 mmHg 42%
    19:00 +19°C° 0 mm 1 mps 738 mmHg 54%
    20:00 +16°C° 0 mm 1 mps 738 mmHg 62%
    21:00 +15°C° 0 mm 1 mps 739 mmHg 69%
    22:00 +13°C° 0 mm 1 mps 739 mmHg 77%
    23:00 +12°C° 0 mm 1 mps 738 mmHg 79%
    Mostrar más